Location: *
(55.6049°S, 142.1985°W)
Time: 01:13:50
(UTC+00:00)

Cosmos 1464 Rocket - Pass Details

Date: 12 May 2021
Orbit: 953 x 1001 km, 82.9° (Epoch: 23 June)

Event Time Altitude Azimuth Distance (km) Brightness Sun altitude
Rises 14:57:40 0° 328° (NNW) 3,711 6.8 -18.9°
Reaches altitude 10° 15:00:17 10° 322° (NW) 2,775 6.1 -18.5°
Maximum altitude 15:06:26 47° 249° (WSW) 1,319 4.3 -17.6°
Drops below altitude 10° 15:12:40 10° 175° (S) 2,815 6.4 -16.8°
Sets 15:15:21 0° 169° (SSE) 3,770 7.1 -16.4°
